Miscellaneous Local Product
Issued by NWS Hastings, NE

Home | Current Version | Previous Version | Graphics & Text | Print | Product List | Glossary On
Versions: 1 2 3 4 5 6 7 8 9 10 11 12 13 14 15 16 17 18 19 20 21 22 23 24 25 26 27 28 29 30 31 32 33 34 35 36 37 38 39 40 41 42 43 44 45 46 47 48 49 50
000
AXUS43 KGID 311602
MISGRI

GID CWA HOURLY WEATHER ROUNDUP
NATIONAL WEATHER SERVICE HASTINGS NE
1000 AM CST SAT JAN 31 2015

NOTE: "FAIR" INDICATES FEW OR NO CLOUDS BELOW 12,000 FEET WITH NO
SIGNIFICANT WEATHER AND/OR OBSTRUCTIONS TO VISIBILITY.

...SOUTH CENTRAL NEBRASKA...

CITY           SKY/WX    TMP DP  RH WIND       PRES   REMARKS
GRAND ISLAND   LGT SNOW  32  31  96 S9        30.06S FOG     WCI  24
HASTINGS       LGT SNOW  32  30  92 S8        30.04S FOG     WCI  25
KEARNEY        CLOUDY    34  30  86 S10       30.03R WCI  26
ORD            CLOUDY    34  30  85 SE6       30.01F WCI  29
YORK           LGT SNOW  32  32 100 S10       30.08F WCI  24
AURORA         LGT SNOW  33  33 100 S9        30.05F WCI  25
LEXINGTON      CLOUDY    33  32  96 SE12      29.99S FOG     WCI  24
HOLDREGE       CLOUDY    32  31  97 S9        30.00S FOG     WCI  24
HEBRON         LGT SNOW  33  31  94 S10       30.10F WCI  25

...NEBRASKA PANHANDLE...

CITY           SKY/WX    TMP DP  RH WIND       PRES   REMARKS
CHADRON        CLOUDY    29  24  82 CALM      29.98F
ALLIANCE       CLOUDY    32  27  81 N8        29.93S WCI  25
SCOTTSBLUFF    LGT SNOW  33  28  81 CALM      29.95R
SIDNEY         LGT SNOW  31  29  92 N7        29.92S FOG     WCI  24

...WESTERN AND NORTH CENTRAL NEBRASKA...

CITY           SKY/WX    TMP DP  RH WIND       PRES   REMARKS
VALENTINE      CLOUDY    28  25  88 NE15      30.02S WCI  16
AINSWORTH      CLOUDY    30  27  89 NE9G16    30.01S WCI  22
ONEILL         CLOUDY    32  30  93 NE8       30.04S WCI  25
BROKEN BOW     CLOUDY    34  31  88 SE7       29.99S WCI  28
IMPERIAL       FOG       33  31  92 E9        29.92F VSB 1/4 WCI  25
NORTH PLATTE   CLOUDY    33  31  92 SE5       29.97S WCI  29
MCCOOK         FOG       34  33  96 E6        29.96S VSB 3/4 WCI  29

...EASTERN NEBRASKA...

CITY           SKY/WX    TMP DP  RH WIND       PRES   REMARKS
NORFOLK        CLOUDY    36  33  89 S8        30.07S WCI  30
SO SIOUX CITY  CLOUDY    36  33  89 SE6       30.12S WCI  31
TEKAMAH        CLOUDY    38  34  85 S14       30.13F WCI  30
COLUMBUS       CLOUDY    36  28  75 S9        30.10F WCI  29
ALBION         CLOUDY    35  31  87 S7        30.06S WCI  29
OMAHA EPPLEY   LGT RAIN  36  34  92 S10       30.15F WCI  28
OFFUTT AFB     FLURRIES  34  33  95 S8        30.15S WCI  28
MILLARD        LGT RAIN  35  33  92 SE6       30.14F WCI  30
LINCOLN        LGT SNOW  34  32  92 S10       30.14S FOG     WCI  26
NEBRASKA CITY  LGT RAIN  34  34  99 S16       30.16F WCI  24
BEATRICE       LGT SNOW  33  32  99 S10       30.14S WCI  24
FALLS CITY     RAIN      35  34  96 SE6       30.19F FOG     WCI  30

...NORTHERN KANSAS...

CITY           SKY/WX    TMP DP  RH WIND       PRES   REMARKS
GOODLAND       CLOUDY    36  34  92 CALM      29.88F
HILL CITY      CLOUDY    36  33  89 S5        29.99F FOG     WCI  32
NORTON         FOG       34  30  86 SE6       29.97  VSB 1   WCI  29
PHILLIPSBURG   CLOUDY    36  36 100 E6        30.02S FOG     WCI  31
SMITH CENTER   CLOUDY    30  30 100 SE13      30.05F FOG     WCI  20
BELOIT         CLOUDY    34  34 100 SE16      30.08S WCI  23
HAYS           CLOUDY    34  27  75 S8        30.03S WCI  27
RUSSELL        RAIN      33  33 100 SE9       30.04S FOG     WCI  25
CONCORDIA      LGT SNOW  33  32  96 SE12      30.10F VSB 1   WCI  24
SALINA         LGT RAIN  35  32  88 SE10      30.12S FOG     WCI  27
TOPEKA         CLOUDY    38  36  92 SE6       30.21S WCI  33



USA.gov is the U.S. government's official web portal to all federal, state and local government web resources and services.